Regional Weather Roundup
Issued by NWS

Home | Current Version | Previous Version | Text Only | Print | Product List | Glossary Off
Versions: 1 2 3 4 5 6 7 8 9 10 11 12 13 14 15 16 17 18 19 20 21 22 23 24 25 26 27 28 29 30 31 32 33 34 35 36 37 38 39 40 41 42 43 44 45 46 47 48 49 50

255
ASUS44 KLIX 270701
RWRLA
LOUISIANA WEATHER ROUNDUP
NATIONAL WEATHER SERVICE NEW ORLEANS LA
100 AM CST THU NOV 27 2014

NOTE: "FAIR" INDICATES FEW OR NO CLOUDS BELOW 12,000 FEET WITH NO
      SIGNIFICANT WEATHER AND/OR OBSTRUCTIONS TO VISIBILITY.
      SKY/WX - SKY CONDITION AND SIGNIFICANT WEATHER.
      TMP - AIR TEMPERATURE.    DP   - DEWPOINT TEMPERATURE.
      RH  - RELATIVE HUMIDITY.  PRES - PRESSURE.
      HX  - HEAT INDEX.         WCI  - WIND CHILL INDEX.

*  THESE STATIONS ARE NOT NWS OR FAA STATIONS AND ARE NOT UNDER
   NWS QUALITY CONTROL.

LAZ040-048-061>063-065-066-069-270800-
SOUTHEAST LOUISIANA

CITY           SKY/WX    TMP DP  RH WIND       PRES   REMARKS
N.O. AUDUBON     N/A     55  50  82 MISG        N/A
N.O. INTL ARPT CLEAR     55  48  77 W10       30.28R
N.O. LAKEFRONT CLEAR     58  50  75 W16       30.27S
N.O. DOWNTOWN* FAIR      55  46  71 SW3       30.28S
SLIDELL        CLEAR     54  47  77 CALM      30.27R
BATON ROUGE    CLEAR     49  43  80 W6        30.30R
BOOTHVILLE     CLEAR     59  53  80 W10       30.29R
BELLE CHASSE   CLEAR     52  47  83 SW3       30.28R
BOGALUSA*        N/A     47  41  77 NW5       30.28R
NEW ROADS*     NOT AVBL
GONZALES*      NOT AVBL
HAMMOND*       NOT AVBL
HOUMA*         CLEAR     53  52  97 W5        30.29S
PORT FOURCHON* SUNNY     59  55  88 W12       30.33R

$$

LAZ041-044-053-054-270800-
SOUTHWEST LOUISIANA

CITY           SKY/WX    TMP DP  RH WIND       PRES   REMARKS
LAKE CHARLES   CLEAR     52  43  71 W5        30.34R
LAFAYETTE      CLEAR     52  46  80 NW8       30.32R
PATTERSON      CLEAR     55  48  76 W10       30.32S
SALT POINT       N/A     63  54  72 W6        30.30R
NEW IBERIA     CLEAR     55  47  74 W7        30.32R
CHENAULT AIRPK CLEAR     51  43  73 W5        30.34R

$$

LAZ027-028-270800-
CENTRAL LOUISIANA

CITY           SKY/WX    TMP DP  RH WIND       PRES   REMARKS
FORT POLK      CLEAR     48  37  65 NW6       30.32R
ALEXANDRIA INT CLEAR     45  38  76 NW6       30.31R
ALEXANDRIA     CLEAR     41  38  89 W5        30.32R

$$

LAZ001-002-270800-
NORTHWEST LOUISIANA

CITY           SKY/WX    TMP DP  RH WIND       PRES   REMARKS
SHREVEPORT     CLEAR     47  34  60 NW9       30.34R
BARKSDALE AFB  CLEAR     45  33  63 NW9       30.35R
DTN SHREVEPORT CLEAR     48  31  51 NW8       30.36R

$$

LAZ014-016-270800-
NORTHEAST LOUISIANA

CITY           SKY/WX    TMP DP  RH WIND       PRES   REMARKS
MONROE         CLEAR     47  35  63 NW8       30.32R
TALLULAH       CLEAR     38  33  82 W3        30.29R

$$




USA.gov is the U.S. government's official web portal to all federal, state and local government web resources and services.